Location: Capvern
(43.1036°N, 0.3160°E)
Time: 22:05:54
(UTC+00:00)

H-2A R/B - Pass Details

Date: 16 October 2021
Orbit: 577 x 654 km, 98.5° (Epoch: 03 December)

Event Time Altitude Azimuth Distance (km) Brightness Sun altitude
Rises 19:50:40 0° 0° (N) 2,803 5.6 -29.1°
Reaches altitude 10° 19:53:07 10° 347° (NNW) 1,901 4.9 -29.6°
Maximum altitude 19:56:24 24° 294° (WNW) 1,233 4.2 -30.2°
Drops below altitude 10° 19:59:42 10° 240° (WSW) 1,903 5.0 -30.7°
Sets 20:02:10 0° 226° (SW) 2,808 5.8 -31.2°
